Terminal Aerodrome Forecast
Issued by NWS

Home | Current Version | Previous Version | Text Only | Print | Product List | Glossary On
Versions: 1 2 3 4 5 6 7 8 9 10 11 12 13 14 15 16 17 18 19 20 21 22 23 24 25 26 27 28 29 30 31 32 33 34 35 36 37
000
FTUS44 KHGX 302007 AAB
TAFCXO
TAF AMD
KCXO 302007Z 3020/3118 VRB05KT P6SM VCSH FEW045 BKN070 BKN090
      TEMPO 3020/3021 VRB10G20KT
     FM310300 VRB04KT P6SM SCT070
     FM311500 03005KT P6SM SCT250=

USA.gov is the U.S. government's official web portal to all federal, state and local government web resources and services.